Tracking 33199 objects as of 17-Feb-2026
HD Live streaming from Space Station
objects crossing your sky now

IRIDIUM 131

Track IRIDIUM 131 now!
10-day predictions
IRIDIUM 131 is classified as:


NORAD ID: 43079
Int'l Code: 2017-083K
Perigee: 783.1 km
Apogee: 786.5 km
Inclination: 86.4 °
Period: 100.4 minutes
Semi major axis: 7155 km
RCS: Unknown
Launch date: December 23, 2017
Source: United States (US)
Launch site: AIR FORCE WESTERN TEST RANGE (AFWTR)
Your satellite tracking list
Your tracking list is empty




NASA's NSSDC Master Catalog

Two Line Element Set (TLE):
1 43079U 17083K   26047.42031534  .00000292  00000-0  97306-4 0  9995
2 43079  86.3993  12.6307 0002333  87.1088 273.0375 14.34218714426795
Source of the keplerian elements: AFSPC